map of WVB home
Great Circle Mapper logo
WVB - Airport
Location
City:  Walvis Bay, Namibia
Name:Rooikop
ICAO / IATA:FYWB / WVB

Details
Type:Airport (Aerodrome, Airfield)
Use:Public/Civil, International (customs port of entry)
Latitude:2258'48"S (-22.979888)
Longitude:1438'43"E (14.645331)
Datum:other
Elevation:299 ft (91 m)
Runways:1
Longest:7001 × 98 ft (2134 × 30 m), paved

Time
Time Zone:UTC+1 (DST+2)
Local Time:

Weather
METAR:FYWB 221400Z 24018KT 9999 BKN100 18/11 Q1015 RESA
TAF:FYWB 220400Z 2206/2312 03005KT 5000 BR OVC010
BECMG 2207/2209 33007KT 9999 BKN015
FM221000 23015KT CAVOK
BECMG 2217/2219 24005KT
BECMG 2219/2221 04003KT 9999 OVC010
TEMPO 2221/2307 0900 FG
BECMG 2308/2310 20010KT 9999 NSW BKN015

Related Locations
Nearby:
Farthest:PHHF: 12352 mi / 19878 km
Tern Island [French Frigate Shoals Airport], Hawaii, HI, US

Find:

   beyond  
but within

Other Information
Maps:
NOTAMs:
Links:
Sources:

  
flag of Namibia   

Sectional Chart

Flight Planning
at skyvector.com

Satellite Image

Google Maps Satellite View

 

Copyright © 2004-2014 Karl L. Swartz. All rights reserved.
The Great Circle Mapper name and logo are trademarks of the Great Circle Mapper.
All other trademarks mentioned herein belong to their respective owners.
Please see credits for attibutions and further copyright information.

  Follow gcmap on Facebook Follow gcmap on Twitter

hCard Microformat

Geo Microformat